Location: Kermapucano
(48.0667°N, 3.3000°W)
Time: 20:54:24
(UTC+00:00)

Cosmos 1500 Rocket - Pass Details

Date: 29 November 2020
Orbit: 603 x 631 km, 82.5° (Epoch: 27 January)

Event Time Altitude Azimuth Distance (km) Brightness Sun altitude
Rises 06:07:35 0° 198° (SSW) 2,844 6.9 -14.9°
Reaches altitude 10° 06:09:49 10° 202° (SSW) 1,946 6.1 -14.5°
Maximum altitude 06:14:03 59° 282° (WNW) 705 3.5 -13.9°
Drops below altitude 10° 06:18:22 10° 3° (N) 1,971 6.0 -13.2°
Sets 06:20:38 0° 7° (N) 2,883 6.9 -12.8°
